Time,TemperatureF,DewpointF,PressureIn,WindDirection,WindDirectionDegrees,WindSpeedMPH,WindSpeedGustMPH,Humidity,HourlyPrecipIn,Conditions,Clouds,dailyrainin,SoftwareType,DateUTC
2014-01-01 00:00:00,24.9,12.2,24.02,West,276,2.0,19.0,58,0.00,,,0.00,VWS V13.01,2014-01-01 05:00:00,
2014-01-01 00:01:00,24.8,12.1,24.02,SW,225,4.0,19.0,58,0.00,,,0.00,VWS V13.01,2014-01-01 05:01:00,
2014-01-01 00:06:00,24.8,12.1,24.02,WSW,257,1.0,6.0,58,0.00,,,0.00,VWS V13.01,2014-01-01 05:06:00,
2014-01-01 00:07:00,24.8,12.1,24.02,WSW,241,0.0,6.0,58,0.00,,,0.00,VWS V13.01,2014-01-01 05:07:00,
2014-01-01 00:11:00,24.7,12.0,24.02,WSW,240,4.0,11.0,58,0.00,,,0.00,VWS V13.01,2014-01-01 05:11:00,
2014-01-01 00:12:00,24.7,12.0,24.02,WSW,246,0.0,11.0,58,0.00,,,0.00,VWS V13.01,2014-01-01 05:12:00,
2014-01-01 01:00:00,24.3,12.1,24.02,WSW,248,3.0,12.0,59,0.00,,,0.00,VWS V13.01,2014-01-01 06:00:00,
2014-01-01 02:00:00,23.7,12.2,24.02,West,270,2.0,9.0,61,0.00,,,0.00,VWS V13.01,2014-01-01 07:00:00,
2014-01-01 03:00:00,23.2,12.1,24.02,West,270,2.0,8.0,62,0.00,,,0.00,VWS V13.01,2014-01-01 08:00:00,
2014-01-01 04:00:00,22.6,12.3,24.02,West,270,0.0,6.0,64,0.00,,,0.00,VWS V13.01,2014-01-01 09:00:00,
2014-01-01 05:00:00,22.3,12.7,24.02,West,270,0.0,2.0,66,0.00,,,0.00,VWS V13.01,2014-01-01 10:00:00,
2014-01-01 06:00:00,22.5,13.6,24.02,West,270,0.0,0.0,68,0.00,,,0.00,VWS V13.01,2014-01-01 11:00:00,
2014-01-01 07:00:00,22.2,14.9,28.14,West,270,0.0,0.0,73,0.00,,,0.00,VWS V13.01,2014-01-01 12:00:00,
2014-01-01 08:00:00,21.5,15.4,24.02,West,270,0.0,0.0,77,0.00,,,0.00,VWS V13.01,2014-01-01 13:00:00,
2014-01-01 09:00:00,23.2,15.2,23.86,West,270,0.0,3.0,71,0.00,,,0.00,VWS V13.01,2014-01-01 14:00:00,
2014-01-01 10:00:00,27.1,17.3,23.86,West,270,1.0,5.0,66,0.00,,,0.00,VWS V13.01,2014-01-01 15:00:00,
2014-01-01 11:00:00,28.9,18.3,23.86,West,270,1.0,6.0,64,0.00,,,0.00,VWS V13.01,2014-01-01 16:00:00,
2014-01-01 12:00:00,30.6,19.5,23.86,SW,225,2.0,10.0,63,0.00,,,0.00,VWS V13.01,2014-01-01 17:00:00,
2014-01-01 13:00:00,31.0,19.1,23.86,West,270,3.0,9.0,61,0.00,,,0.00,VWS V13.01,2014-01-01 18:00:00,
2014-01-01 14:00:00,31.9,20.0,23.86,West,270,1.0,7.0,61,0.00,,,0.00,VWS V13.01,2014-01-01 19:00:00,
2014-01-01 15:00:00,33.1,21.1,23.86,WNW,292,0.0,4.0,61,0.00,,,0.00,VWS V13.01,2014-01-01 20:00:00,
2014-01-01 16:00:00,33.2,21.2,23.86,WNW,292,0.0,5.0,61,0.00,,,0.00,VWS V13.01,2014-01-01 21:00:00,
2014-01-01 17:00:00,32.9,21.7,23.86,WNW,292,0.0,3.0,63,0.00,,,0.00,VWS V13.01,2014-01-01 22:00:00,
2014-01-01 18:00:00,32.1,21.3,23.86,WNW,292,0.0,3.0,64,0.00,,,0.00,VWS V13.01,2014-01-01 23:00:00,
2014-01-01 19:00:00,32.4,21.6,31.22,WNW,292,0.0,3.0,64,0.00,,,0.00,VWS V13.01,2014-01-02 00:00:00,
2014-01-01 20:00:00,32.3,22.2,29.85,WNW,292,0.0,2.0,66,0.00,,,0.00,VWS V13.01,2014-01-02 01:00:00,
2014-01-01 21:00:00,32.4,22.0,29.85,WNW,292,0.0,4.0,65,0.00,,,0.00,VWS V13.01,2014-01-02 02:00:00,
2014-01-01 22:00:00,32.3,22.9,24.02,East,90,0.0,5.0,68,0.00,,,0.00,VWS V13.01,2014-01-02 03:00:00,
2014-01-01 23:00:00,32.5,23.1,24.37,ENE,68,0.0,5.0,68,0.00,,,0.00,VWS V13.01,2014-01-02 04:00:00,